Вернуться в каталог

STARLINK-11092

АктивенСвязьVLEO
NORAD 59710·PAYLOAD·🇺🇸 United States

Запущен May 10, 2024 с Vandenberg Space Force Base

Loading…

Ближайшие Пролёты (ближайшие 24 часа)

TLE

СвежийSource: CelesTrak SupGP

Эпоха: Sep 15, 2026, 02:08 UTC

1 59710C 24088C   26258.08937500  .00096858  00000+0  79636-3 0  2586
2 59710  53.1567 112.8512 0001075  87.3783   5.9562 15.69706023    17

Отслеживайте STARLINK-11092 в реальном времени с AllMySat

Download on the App Store